This demonstration page uses our WeatherBlox Daily Observations layout. Learn more.

Left ArrowRight Arrow

Hourly Observations for November 19, 2015

Temp ( °F °C ) Dew Point ( °F °C ) Humidity (%) Winds ( mph kmh ) Pressure ( in mb ) Visibility ( mi km ) Precip ( " mm )
12:53 am 00:53 Mostly Cloudy 56 13.3 48 8.9 75 75 SSW 9 15 29.85 1011 10 16 0.00 0.00
1:53 am 01:53 Partly Cloudy 55 12.8 47 8.3 74 74 S 7 11 29.85 1011 10 16 0.00 0.00
2:53 am 02:53 Cloudy 56 13.3 47 8.3 72 72 SW 9 15 29.89 1012 10 16 0.00 0.00
3:53 am 03:53 Mostly Cloudy 54 12.2 47 8.3 77 77 SW 8 13 29.90 1013 10 16 0.00 0.00
4:53 am 04:53 Clear 51 10.6 46 7.8 83 83 SW 7 11 29.92 1013 10 16 0.00 0.00
5:53 am 05:53 Clear 51 10.6 45 7.2 80 80 SSW 6 9 29.94 1014 10 16 0.00 0.00
6:53 am 06:53 Clear 49 9.4 45 7.2 86 86 SSW 6 9 29.95 1014 10 16 0.00 0.00
7:53 am 07:53 Sunny 49 9.4 44 6.7 83 83 SW 5 7 29.97 1015 10 16 0.00 0.00
8:53 am 08:53 Sunny 53 11.7 45 7.2 74 74 VRB 5 7 29.98 1015 10 16 0.00 0.00
9:53 am 09:53 Sunny 55 12.8 44 6.7 67 67 SW 10 17 30.00 1016 10 16 0.00 0.00
10:53 am 10:53 Partly Cloudy 56 13.3 44 6.7 65 65 WSW 8 13 30.02 1017 10 16 0.00 0.00
11:53 am 11:53 Partly Cloudy 58 14.4 43 6.1 58 58 WSW 15 24 30.04 1017 10 16 0.00 0.00
12:53 pm 12:53 Mostly Cloudy 58 14.4 43 6.1 58 58 W 12 19 30.04 1017 10 16 0.00 0.00
1:53 pm 13:53 Mostly Cloudy 56 13.3 41 5 57 57 WSW 10 17 30.05 1018 10 16 0.00 0.00
2:53 pm 14:53 Partly Cloudy 57 13.9 39 3.9 51 51 W 13 20 30.06 1018 10 16 0.00 0.00
3:53 pm 15:53 Sunny 56 13.3 37 2.8 49 49 W 8 13 30.09 1019 10 16 0.00 0.00
4:53 pm 16:53 Sunny 53 11.7 27 -2.8 37 37 W 8 13 30.10 1019 10 16 0.00 0.00
5:53 pm 17:53 Clear 50 10 28 -2.2 43 43 WSW 8 13 30.14 1021 10 16 0.00 0.00
6:53 pm 18:53 Clear 46 7.8 28 -2.2 50 50 W 6 9 30.17 1022 10 16 0.00 0.00
7:53 pm 19:53 Clear 47 8.3 27 -2.8 46 46 W 6 9 30.19 1023 10 16 0.00 0.00
8:53 pm 20:53 Clear 45 7.2 25 -3.9 46 46 WNW 8 13 30.23 1024 10 16 0.00 0.00
9:53 pm 21:53 Clear 42 5.6 21 -6.1 43 43 W 5 7 30.25 1024 10 16 0.00 0.00
10:53 pm 22:53 Clear 33 0.6 27 -2.8 78 78 WNW 3 6 30.26 1025 10 16 0.00 0.00
11:53 pm 23:53 Clear 31 -0.6 25 -3.9 79 79 Calm 30.28 1026 10 16 0.00 0.00

Powered by AerisWeather